#timestamp,LO_Frequency,Hit,StdDev 
1505538015.3,286046999.2,N
1505538035.1,286046998.7,N
1505538055.9,286046999.9,N
1505538075.7,286047002.6,N
1505538095.5,286047002.1,N
1505538115.4,286047012.2,Y
1505538135.2,286047012.8,P
1505538155.1,286047012.3,N
1505538156.0,286047012.3,N
1505538175.8,286047010.8,N
1505538195.6,286047006.2,N
1505538215.5,286047007.4,N
1505538235.3,286047005.4,N
1505538255.1,286047003.1,N
1505538275.9,286047003.7,N
1505538295.7,286047002.2,N
1505538315.6,286047001.5,N
1505538335.4,286047001.5,N
1505538355.2,286047002.3,N
1505538375.1,286047007.9,N
1505538376.0,286047007.9,N
1505538395.8,286047013.4,Y
1505538415.7,286047005.0,P
1505538435.5,286047002.6,P
1505538455.3,286047000.0,N
1505538475.2,286047001.0,N
1505538495.9,286046999.4,N
1505538515.7,286046996.6,N
1505538535.6,286046997.8,N
1505538555.4,286046995.6,N
1505538575.3,286046995.1,N
1505538595.1,286046997.7,N
1505538596.0,286046997.7,N
1505538615.8,286046997.8,N
1505538635.7,286046997.5,N
1505538655.5,286046995.2,N
1505538675.3,286046995.5,N
1505538695.2,286046996.2,N
1505538715.0,286046996.0,N
1505538715.9,286046996.0,N
1505538735.8,286046993.7,N
1505538755.6,286046993.8,N
1505538775.4,286046993.9,N
1505538795.3,286046994.1,N
1505538815.1,286046993.9,N
1505538835.9,286046994.5,N
1505538855.7,286046992.1,N
1505538875.5,286046994.0,N
1505538895.4,286046994.5,N
1505538915.2,286046994.4,N
1505538935.1,286046992.1,N
1505538936.0,286046992.1,N
1505538955.8,286046991.9,N
1505538975.6,286046992.3,N
1505538995.5,286046992.0,Y
1505539015.3,286046997.1,P
1505539035.2,286046996.9,P
1505539055.9,286046999.4,N
1505539075.7,286046998.9,N
1505539095.6,286046999.2,N
1505539115.4,286046999.5,N
1505539135.3,286046998.8,N
1505539155.1,286046999.5,N
1505539156.0,286046999.5,N
1505539175.8,286046998.9,N
1505539195.7,286046998.2,N
1505539215.5,286046999.0,N
1505539235.3,286046998.9,N
1505539255.2,286046999.5,N
1505539275.0,286046999.5,N
1505539275.9,286046999.5,N
1505539295.8,286046997.1,N
1505539315.6,286046999.4,N
1505539335.4,286046998.4,N
1505539355.3,286046998.5,N
1505539375.1,286046999.3,N
1505539395.8,286046999.3,N
1505539415.7,286046998.7,N
1505539435.5,286046998.6,N
1505539455.4,286046999.6,N
1505539475.2,286046998.8,N
1505539495.0,286046996.6,Y
1505539495.9,286046996.6,P
1505539515.8,286046998.1,N
1505539535.6,286047000.4,N
1505539555.5,286047000.0,N
1505539575.3,286047000.0,N
1505539595.1,286047000.3,N
1505539615.9,286047000.9,N
1505539635.7,286047000.5,N
1505539655.5,286047000.6,N
1505539675.4,286047000.8,N
1505539695.2,286047000.5,N
1505539715.1,286047001.0,N
1505539716.0,286047001.0,N
1505539735.8,286047001.1,N
1505539755.6,286046998.9,N
1505539775.5,286046998.5,N
1505539795.3,286047000.5,N
1505539815.1,286047002.8,N
1505539835.9,286047002.5,N
1505539855.7,286047002.7,N
1505539875.6,286047002.6,N
1505539895.4,286047001.7,N
1505539915.2,286047001.8,N
1505539935.1,286047001.4,N
1505539936.0,286047001.4,N
1505539955.8,286047001.9,N
1505539975.7,286047002.0,N
1505539995.5,286047002.1,N
1505540015.3,286047001.5,N
1505540035.2,286047001.7,N
1505540055.9,286047002.2,N
1505540075.7,286047002.6,N
1505540095.6,286047004.4,Y
1505540115.4,286047002.8,P
1505540135.3,286047004.4,P
1505540155.1,286047004.2,P
1505540156.0,286047004.2,Y
1505540175.8,286047000.8,P
1505540195.7,286047000.8,N
1505540215.5,286047001.2,N
1505540235.3,286047000.4,N
1505540255.2,286047001.2,N
1505540275.0,286046998.7,N
1505540275.9,286046998.7,N
1505540295.8,286046999.1,N
1505540315.6,286046998.3,N
1505540335.4,286046998.2,N
1505540355.3,286047000.5,N
1505540375.1,286047000.8,N
1505540395.9,286046998.4,N
1505540415.7,286046998.3,N
1505540435.5,286046998.6,N
1505540455.4,286047001.1,N
1505540475.2,286047001.2,N
1505540495.0,286047001.0,N
1505540495.9,286047001.0,N
1505540515.8,286047000.1,N
1505540535.6,286047000.9,N
1505540555.5,286047000.8,N
1505540575.3,286047000.9,N
1505540595.1,286047000.0,N
1505540615.9,286046999.8,N
1505540635.7,286047002.8,N
1505540655.6,286046999.9,N
1505540675.4,286047002.3,N
1505540695.2,286047002.5,N
1505540745.1,286047000.4,E
1505540755.0,286047000.1,N
1505540755.9,286047000.1,P
1505540775.8,286047001.0,P
1505540795.6,286047000.7,N
1505540815.4,286047001.0,N
1505540835.3,286047000.9,N
1505540855.1,286047000.0,N
1505540875.8,286047000.0,N
1505540895.7,286046999.9,N
1505540915.5,286047000.5,N
1505540935.4,286047000.0,N
1505540955.2,286047001.0,N
1505540975.0,286047000.5,N
1505540975.9,286047000.5,N
1505540995.8,286046998.6,Y
1505541015.6,286047000.2,P
1505541035.4,286046999.8,N
1505541055.3,286046999.8,N
1505541075.1,286047000.4,N
1505541095.9,286047001.7,Y
1505541115.7,286047002.8,P
1505541135.5,286047002.4,N
1505541155.4,286047001.9,N
1505541175.2,286047002.3,N
1505541195.1,286047002.1,N
1505541196.0,286047002.1,N
1505541215.8,286047002.2,N
1505541235.6,286047001.0,N
1505541255.5,286047001.0,N
1505541275.3,286047001.0,N
1505541295.1,286047001.0,N
1505541315.9,286047000.4,N
1505541335.7,286047000.9,N
1505541355.6,286046999.9,N
1505541375.4,286047000.7,N
1505541395.2,286047000.0,N
1505541415.1,286047000.4,N
1505541416.0,286047000.4,N
1505541435.8,286047001.2,N
1505541455.7,286047001.2,N
1505541475.5,286046999.9,N
1505541495.3,286046999.8,N
1505541515.2,286047001.0,N
1505541535.0,286047000.7,N
1505541535.9,286047000.7,N
1505541555.8,286047000.1,N
1505541575.6,286047002.8,Y
1505541595.4,286047000.8,P
